Le nostre stazioni meteo in Italia

Pubblicità
Il mio iltempo24.it
Messina, Italia (16420): Temperatura & dewpoint: 12.01.2020 09:00:00 - 18.01.2020 09:00:00 (CET)Messina, Italia (16420): velocità del vento: 12.01.2020 09:00:00 - 18.01.2020 09:00:00 (CET)Messina, Italia (16420): direzione del vento: 12.01.2020 09:00:00 - 18.01.2020 09:00:00 (CET)Messina, Italia (16420): reduced air pressure: 12.01.2020 09:00:00 - 18.01.2020 09:00:00 (CET)Messina, Italia (16420): visibility: 12.01.2020 09:00:00 - 18.01.2020 09:00:00 (CET)Messina, Italia (16420): ore di luce: 12.01.2020 09:00:00 - 18.01.2020 09:00:00 (CET)
Data & Tempo tt [°C] td [°C] ff [km/h] ff [kn] dd ppp [hPa] vv [km] sd [min]
18.01.2020 09:00:00 13,0 9,1 4 2 ONO 1025,0 20 0
18.01.2020 08:00:00 13,0 8,3 4 2 NO 1025,0 18 0
18.01.2020 07:00:00 13,0 7,7 5 3 NO 1025,0 18 -
18.01.2020 06:00:00 13,0 9,1 5 3 NNO 1024,9 18 -
18.01.2020 05:00:00 13,2 7,7 5 3 NNO 1025,5 16 -
18.01.2020 04:00:00 13,2 7,2 4 2 NO 1026,6 16 -
18.01.2020 03:00:00 13,2 6,1 4 2 NNO 1025,7 16 -
18.01.2020 02:00:00 13,4 3,7 4 2 N 1026,6 16 -
18.01.2020 01:00:00 13,4 3,2 5 3 NNE 1026,4 16 -
18.01.2020 00:00:00 13,6 4,2 5 3 NNE 1026,4 16 -
17.01.2020 23:00:00 13,6 3,9 5 3 N 1026,4 16 -
17.01.2020 22:00:00 13,6 3,9 9 5 NNO 1026,4 16 -
17.01.2020 21:00:00 13,6 3,7 8 4 NO 1026,4 16 -
17.01.2020 20:00:00 13,6 3,9 8 4 NO 1026,4 16 -
17.01.2020 19:00:00 13,6 4,2 8 4 NO 1026,1 16 -
17.01.2020 18:00:00 13,8 4,7 9 5 NNO 1025,6 20 -
17.01.2020 17:00:00 13,8 5,2 8 4 NNO 1025,6 20 18
17.01.2020 16:00:00 14,0 5,1 13 7 N 1025,6 20 0
17.01.2020 15:00:00 14,0 5,1 9 5 NNO 1025,6 20 0
17.01.2020 14:00:00 14,2 5,0 9 5 N 1025,8 20 0
17.01.2020 13:00:00 14,2 4,5 11 6 NNO 1026,5 20 0
17.01.2020 12:00:00 14,2 4,5 9 5 NNO 1026,6 20 12
17.01.2020 11:00:00 14,0 4,8 9 5 NNO 1026,6 20 0
17.01.2020 10:00:00 13,6 4,7 13 7 NNE 1026,6 20 0
17.01.2020 09:00:00 13,2 4,4 11 6 N 1026,6 20 0
17.01.2020 08:00:00 13,2 4,6 8 4 N 1026,6 20 0
17.01.2020 07:00:00 13,2 4,9 8 4 N 1026,6 20 -
17.01.2020 06:00:00 13,0 4,4 8 4 N 1026,6 12 -
17.01.2020 05:00:00 13,0 4,2 5 3 NNO 1026,7 12 -
17.01.2020 04:00:00 13,0 4,2 5 3 NO 1027,1 12 -
17.01.2020 03:00:00 13,0 4,4 8 4 NNO 1027,1 12 -
17.01.2020 02:00:00 13,0 4,7 8 4 NNO 1027,3 12 -
17.01.2020 01:00:00 13,0 4,4 9 5 NNO 1027,5 12 -
17.01.2020 00:00:00 13,2 5,1 11 6 NNO 1027,6 12 -
16.01.2020 23:00:00 13,2 5,4 9 5 N 1027,6 12 -
16.01.2020 22:00:00 13,2 4,4 11 6 NNE 1027,6 12 -
16.01.2020 21:00:00 13,2 5,1 11 6 NNE 1027,6 12 -
16.01.2020 20:00:00 13,0 5,7 11 6 NNE 1027,5 18 -
16.01.2020 19:00:00 13,0 7,2 9 5 NNE 1027,4 18 -
16.01.2020 18:00:00 13,0 7,2 8 4 NNE 1027,2 18 -
16.01.2020 17:00:00 13,6 7,2 11 6 NNE 1027,1 18 0
16.01.2020 16:00:00 14,2 7,3 11 6 N 1027,2 20 6
16.01.2020 15:00:00 14,2 8,0 8 4 NNO 1027,6 20 30
16.01.2020 14:00:00 15,0 7,8 9 5 NNO 1027,5 20 60
16.01.2020 13:00:00 14,8 7,4 4 2 NNO 1027,8 20 48
16.01.2020 12:00:00 14,2 7,7 9 5 NO 1028,5 20 36
16.01.2020 11:00:00 14,2 9,0 9 5 NO 1028,6 20 60
16.01.2020 10:00:00 14,0 9,4 4 2 NNO 1028,6 20 60
16.01.2020 09:00:00 13,0 9,6 4 2 N 1028,3 18 60
16.01.2020 08:00:00 12,4 9,6 5 3 N 1028,1 16 0
16.01.2020 07:00:00 12,2 9,8 4 2 NNO 1028,1 10 -
16.01.2020 06:00:00 12,2 9,8 5 3 NNO 1028,0 16 -
16.01.2020 05:00:00 12,2 9,8 9 5 N 1028,0 14 -
16.01.2020 04:00:00 12,0 9,5 15 8 ONO 1028,0 16 -
16.01.2020 03:00:00 12,0 9,2 15 8 ONO 1028,1 16 -
16.01.2020 02:00:00 12,0 9,2 5 3 NO 1028,2 16 -
16.01.2020 01:00:00 12,0 9,2 8 4 NO 1028,2 16 -
16.01.2020 00:00:00 12,0 9,4 5 3 NNO 1028,4 16 -
15.01.2020 23:00:00 12,0 9,4 4 2 NO 1028,4 16 -
15.01.2020 22:00:00 11,8 9,4 0 0 N 1028,3 14 -
15.01.2020 21:00:00 12,0 9,5 4 2 NNO 1028,3 12 -
15.01.2020 20:00:00 12,2 9,8 8 4 NNO 1028,2 12 -
15.01.2020 19:00:00 12,6 9,4 4 2 N 1027,6 12 -
15.01.2020 18:00:00 13,0 10,2 8 4 NNO 1027,6 16 -
15.01.2020 17:00:00 13,8 9,8 5 3 NNO 1027,2 20 12
15.01.2020 16:00:00 15,8 8,1 8 4 N 1027,0 20 60
15.01.2020 15:00:00 15,6 8,1 8 4 N 1026,8 20 60
15.01.2020 14:00:00 16,0 7,2 8 4 NE 1026,8 20 60
15.01.2020 13:00:00 15,8 7,6 8 4 ENE 1027,3 20 60
15.01.2020 12:00:00 15,6 8,6 9 5 NE 1027,6 20 60
15.01.2020 11:00:00 14,8 8,1 5 3 N 1027,6 20 60
15.01.2020 10:00:00 14,0 8,8 4 2 NNO 1027,5 20 60
15.01.2020 09:00:00 12,4 8,7 4 2 NNO 1027,5 20 60
15.01.2020 08:00:00 11,2 8,8 8 4 N 1027,1 20 0
15.01.2020 07:00:00 11,2 9,3 5 3 NO 1026,7 20 -
15.01.2020 06:00:00 11,2 9,1 0 0 N 1026,7 14 -
15.01.2020 05:00:00 11,0 9,4 0 0 N 1026,7 14 -
15.01.2020 04:00:00 11,4 9,5 0 0 N 1026,6 14 -
15.01.2020 03:00:00 12,0 9,9 4 2 NNO 1026,6 14 -
15.01.2020 02:00:00 11,8 9,9 0 0 N 1026,6 14 -
15.01.2020 01:00:00 12,0 9,9 0 0 N 1026,6 14 -
15.01.2020 00:00:00 12,0 9,7 4 2 NO 1026,7 14 -
14.01.2020 23:00:00 12,2 9,6 4 2 NO 1026,7 14 -
14.01.2020 22:00:00 11,8 9,5 5 3 NO 1026,6 14 -
14.01.2020 21:00:00 12,0 9,7 4 2 NO 1026,6 14 -
14.01.2020 20:00:00 12,0 9,2 0 0 N 1026,4 20 -
14.01.2020 19:00:00 12,4 8,9 0 0 N 1025,9 20 -
14.01.2020 18:00:00 12,8 9,2 0 0 N 1025,6 20 -
14.01.2020 17:00:00 13,4 9,7 0 0 N 1025,2 20 0
14.01.2020 16:00:00 14,6 9,2 4 2 NO 1024,8 20 60
14.01.2020 15:00:00 15,2 8,0 5 3 NO 1024,6 20 60
14.01.2020 14:00:00 15,4 7,2 5 3 NNO 1024,8 20 60
14.01.2020 13:00:00 14,4 8,1 4 2 NNO 1025,2 20 24
14.01.2020 12:00:00 14,4 9,6 5 3 NNE 1025,5 20 36
14.01.2020 11:00:00 14,0 9,7 5 3 NNO 1025,6 18 18
14.01.2020 10:00:00 13,0 9,6 4 2 N 1025,4 20 18
14.01.2020 09:00:00 11,4 9,0 0 0 N 1025,2 20 0
14.01.2020 08:00:00 11,0 8,7 0 0 N 1025,2 20 6
14.01.2020 07:00:00 11,0 7,7 4 2 N 1024,9 10 -
14.01.2020 06:00:00 10,0 6,7 5 3 NNO 1024,6 16 -
14.01.2020 05:00:00 9,0 6,8 2 1 O 1024,7 16 -
14.01.2020 04:00:00 9,2 7,5 0 0 N 1024,8 16 -
14.01.2020 03:00:00 9,4 7,0 4 2 N 1024,8 16 -
14.01.2020 02:00:00 9,6 9,1 0 0 N 1024,8 16 -
14.01.2020 01:00:00 10,0 9,5 0 0 N 1024,7 16 -
14.01.2020 00:00:00 10,2 9,4 4 2 N 1024,7 16 -
13.01.2020 23:00:00 10,6 10,1 4 2 NO 1024,7 16 -
13.01.2020 22:00:00 10,6 9,4 2 1 SSO 1024,6 16 -
13.01.2020 21:00:00 11,0 8,4 0 0 N 1024,5 16 -
13.01.2020 20:00:00 12,0 8,8 8 4 NO 1024,4 14 -
13.01.2020 19:00:00 12,4 9,0 9 5 ONO 1023,9 14 -
13.01.2020 18:00:00 13,0 9,6 9 5 NNO 1023,6 14 -
13.01.2020 17:00:00 13,6 9,7 5 3 NE 1023,4 20 6
13.01.2020 16:00:00 15,0 9,6 8 4 ENE 1023,4 20 60
13.01.2020 15:00:00 15,8 7,0 8 4 ENE 1023,6 20 60
13.01.2020 14:00:00 15,8 8,1 4 2 E 1023,8 20 60
13.01.2020 13:00:00 15,4 9,1 5 3 SSE 1024,3 20 60
13.01.2020 12:00:00 15,0 8,5 5 3 SSO 1024,6 20 60
13.01.2020 11:00:00 14,6 8,5 4 2 SSE 1024,6 20 60
13.01.2020 10:00:00 12,8 8,1 4 2 S 1024,5 20 60
13.01.2020 09:00:00 11,0 7,7 0 0 N 1024,5 20 60
13.01.2020 08:00:00 10,0 8,1 2 1 O 1024,5 20 6
13.01.2020 07:00:00 10,2 8,1 2 1 O 1024,2 20 -
13.01.2020 06:00:00 10,8 8,7 2 1 ONO 1024,2 12 -
13.01.2020 05:00:00 11,0 8,7 4 2 O 1024,2 12 -
13.01.2020 04:00:00 11,0 8,6 4 2 O 1024,6 12 -
13.01.2020 03:00:00 11,0 9,7 4 2 NO 1024,5 12 -
13.01.2020 02:00:00 11,4 9,8 5 3 NO 1024,4 10 -
13.01.2020 01:00:00 11,6 9,2 4 2 ONO 1024,6 10 -
13.01.2020 00:00:00 11,8 9,0 4 2 ONO 1024,6 12 -
12.01.2020 23:00:00 12,0 9,0 4 2 ONO 1024,6 12 -
12.01.2020 22:00:00 12,0 8,8 4 2 ONO 1024,5 12 -
12.01.2020 21:00:00 12,0 8,8 4 2 E 1024,3 12 -
12.01.2020 20:00:00 12,2 9,6 2 1 ONO 1024,3 16 -
12.01.2020 19:00:00 12,4 9,0 5 3 NO 1024,0 16 -
12.01.2020 18:00:00 13,0 9,4 4 2 NNO 1023,6 16 -
12.01.2020 17:00:00 13,2 9,3 8 4 NO 1023,4 20 0
12.01.2020 16:00:00 14,4 6,2 4 2 NO 1023,4 20 24
12.01.2020 15:00:00 14,4 7,2 5 3 NO 1023,3 20 0
12.01.2020 14:00:00 14,6 7,2 5 3 NO 1023,3 20 0
12.01.2020 13:00:00 14,4 7,0 5 3 N 1023,6 20 0
12.01.2020 12:00:00 14,6 7,9 4 2 NE 1024,2 20 12
12.01.2020 11:00:00 15,2 7,0 4 2 ENE 1024,5 20 60
12.01.2020 10:00:00 13,2 7,4 4 2 SSE 1024,5 20 18
12.01.2020 09:00:00 12,0 7,1 0 0 N 1023,6 20 6

tt = Temperatura
td = dewpoint
ff = velocità del vento
dd = direzione del vento
ppp = reduced air pressure
vv = visibility
sd = ore di luce

Stazioni seguenti

WeatherPro
AMSI
MeteoEarth